Weather History for KHCD - February, 2014

Change the Weather History Date:

Saturday, February 8, 2014

  Actual Average Record
Temperature  
Mean Temperature 1 °F -  
Max Temperature 13 °F 24 °F 55 °F (1987)
Min Temperature -11 °F 0 °F -23 °F (1971)
Degree Days  
Heating Degree Days 64    
Moisture  
Dew Point -1 °F    
Average Humidity 84    
Maximum Humidity 90    
Minimum Humidity 79    
Precipitation  
Precipitation 0.00 in - - ()
Sea Level Pressure  
Sea Level Pressure 30.10 in    
Wind  
Wind Speed 3 mph (SW)    
Max Wind Speed 10 mph    
Max Gust Speed -    
Visibility 8 miles    
Events Snow    
Averages and records for this station are not official NWS values.
T = Trace of Precipitation, MM = Missing Value Source: NWS Daily Summary

Daily Weather History Graph

Daily Weather History Graph

Search for Another Location

Airport or City:

Trip Planner

Search our weather history database for the weather conditions in past years. The results will help you decide how hot, cold, wet, or windy it might be!

Date:

Astronomy

Feb. 08, 2014 Rise Set
Actual Time 7:28 AM CST 5:35 PM CST
Civil Twilight 6:57 AM CST 6:06 PM CST
Nautical Twilight 6:22 AM CST 6:41 PM CST
Astronomical Twilight 5:48 AM CST 7:15 PM CST
Moon 12:26 PM CST (2/8) 2:45 AM CST (2/8)
Length of Visible Light 11h 09m
Length of Day
10h 07m
Waxing Gibbous, 69% of the Moon is Illuminated
Feb 8
Waxing Gibbous
Feb 14
Full
Feb 22
Last Quarter
Mar 1
New
Mar 8
First Quarter

Hourly Weather History & Observations

Time (CST) Temp. Windchill Dew Point Humidity Pressure Visibility Wind Dir Wind Speed Gust Speed Precip Events Conditions
12:13 AM 0.1 °F -11.4 °F -3.5 °F 85% 30.10 in 10.0 mi South 5.8 mph - N/A   Clear
12:33 AM -1.3 °F -11.4 °F -5.1 °F 84% 30.11 in 10.0 mi South 4.6 mph - N/A   Clear
12:53 AM -2.2 °F -10.4 °F -5.8 °F 85% 30.11 in 10.0 mi South 3.5 mph - N/A   Clear
1:13 AM -4.2 °F - -8.0 °F 84% 30.11 in 10.0 mi Calm Calm - N/A   Clear
1:33 AM -2.7 °F - -6.2 °F 85% 30.10 in 10.0 mi Calm Calm - N/A   Clear
1:52 AM -1.1 °F - -4.5 °F 85% 30.10 in 10.0 mi Calm Calm - N/A   Clear
2:13 AM -3.5 °F - -7.1 °F 85% 30.10 in 10.0 mi Calm Calm - N/A   Clear
2:33 AM -4.2 °F - -8.0 °F 84% 30.09 in 10.0 mi Calm Calm - N/A   Clear
2:53 AM -6.5 °F -15.3 °F -10.5 °F 83% 30.09 in 10.0 mi ESE 3.5 mph - N/A   Clear
3:13 AM -8.1 °F -17.1 °F -12.1 °F 83% 30.09 in 10.0 mi ESE 3.5 mph - N/A   Clear
3:33 AM -9.0 °F -18.2 °F -13.0 °F 83% 30.09 in 10.0 mi ESE 3.5 mph - N/A   Clear
3:53 AM -7.8 °F -16.7 °F -11.7 °F 83% 30.08 in 10.0 mi SE 3.5 mph - N/A   Clear
4:13 AM -8.9 °F -18.0 °F -12.8 °F 83% 30.08 in 10.0 mi ESE 3.5 mph - N/A   Clear
4:33 AM -8.9 °F -18.0 °F -12.8 °F 83% 30.07 in 10.0 mi SE 3.5 mph - N/A   Clear
4:53 AM -8.9 °F - -13.2 °F 81% 30.07 in 10.0 mi Calm Calm - N/A   Clear
5:13 AM -9.8 °F -19.0 °F -14.1 °F 81% 30.07 in 10.0 mi ESE 3.5 mph - N/A   Clear
5:33 AM -7.4 °F - -11.4 °F 83% 30.07 in 10.0 mi Calm Calm - N/A   Clear
5:53 AM -9.0 °F -18.2 °F -13.5 °F 81% 30.07 in 10.0 mi SE 3.5 mph - N/A   Clear
6:13 AM -11.0 °F -20.4 °F -15.2 °F 82% 30.07 in 10.0 mi SE 3.5 mph - N/A   Clear
6:33 AM -9.2 °F - -13.4 °F 82% 30.07 in 5.0 mi Calm Calm - N/A Snow Light Snow
6:53 AM -6.0 °F - -9.8 °F 84% 30.06 in 3.0 mi Calm Calm - N/A Snow Light Snow
7:13 AM -3.3 °F - -6.9 °F 85% 30.07 in 7.0 mi Calm Calm - N/A Snow Light Snow
7:33 AM -3.1 °F - -6.7 °F 85% 30.07 in 10.0 mi Calm Calm - N/A   Overcast
7:53 AM -1.3 °F - -4.9 °F 85% 30.08 in 5.0 mi Calm Calm - N/A Snow Light Snow
8:13 AM -0.0 °F -7.9 °F -3.6 °F 85% 30.07 in 3.0 mi ESE 3.5 mph - N/A Snow Light Snow
8:33 AM 0.5 °F -7.3 °F -2.9 °F 85% 30.07 in 4.0 mi ESE 3.5 mph - N/A Snow Light Snow
8:53 AM 1.4 °F -6.2 °F -2.2 °F 85% 30.07 in 5.0 mi ESE 3.5 mph - N/A Snow Light Snow
9:13 AM 2.3 °F -5.2 °F -1.3 °F 85% 30.07 in 10.0 mi SE 3.5 mph - N/A Snow Light Snow
9:33 AM 3.4 °F -4.0 °F 0.1 °F 86% 30.07 in 7.0 mi SE 3.5 mph - N/A Snow Light Snow
9:53 AM 4.5 °F -2.7 °F 1.4 °F 87% 30.07 in 3.0 mi SE 3.5 mph - N/A Snow Light Snow
10:13 AM 5.4 °F - 2.3 °F 87% 30.07 in 3.0 mi Calm Calm - N/A Snow Light Snow
10:33 AM 6.1 °F -0.9 °F 3.2 °F 88% 30.08 in 7.0 mi South 3.5 mph - N/A Snow Light Snow
10:53 AM 7.0 °F 0.1 °F 4.1 °F 88% 30.08 in 7.0 mi SSE 3.5 mph - N/A Snow Light Snow
11:13 AM 8.1 °F 1.4 °F 5.2 °F 88% 30.07 in 5.0 mi SSE 3.5 mph - N/A Snow Light Snow
11:33 AM 9.3 °F 2.8 °F 6.1 °F 87% 30.07 in 5.0 mi SSE 3.5 mph - N/A Snow Light Snow
11:53 AM 10.0 °F - 5.7 °F 83% 30.07 in 3.0 mi Calm Calm - N/A Snow Light Snow
12:12 PM 10.2 °F - 5.5 °F 81% 30.07 in 5.0 mi Calm Calm - N/A Snow Light Snow
12:33 PM 11.1 °F - 6.1 °F 80% 30.06 in 7.0 mi Calm Calm - N/A Snow Light Snow
12:53 PM 11.3 °F - 6.3 °F 80% 30.07 in 7.0 mi Calm Calm - N/A   Overcast
1:13 PM 11.8 °F - 6.6 °F 80% 30.06 in 7.0 mi Calm Calm - N/A Snow Light Snow
1:33 PM 12.2 °F 6.1 °F 7.3 °F 81% 30.06 in 7.0 mi West 3.5 mph - N/A Snow Light Snow
1:53 PM 12.4 °F 6.3 °F 7.3 °F 80% 30.07 in 7.0 mi West 3.5 mph - N/A   Overcast
2:13 PM 12.7 °F 5.0 °F 7.7 °F 80% 30.07 in 7.0 mi West 4.6 mph - N/A Snow Light Snow
2:33 PM 12.9 °F 6.9 °F 8.1 °F 81% 30.07 in 7.0 mi West 3.5 mph - N/A Snow Light Snow
2:53 PM 13.1 °F - 8.1 °F 80% 30.07 in 4.0 mi Calm Calm - N/A Snow Light Snow
3:13 PM 13.1 °F 7.1 °F 8.2 °F 81% 30.07 in 10.0 mi WNW 3.5 mph - N/A Snow Light Snow
3:33 PM 13.1 °F - 8.1 °F 80% 30.07 in 4.0 mi Calm Calm - N/A Snow Light Snow
3:53 PM 13.1 °F - 7.7 °F 79% 30.07 in 10.0 mi Calm Calm - N/A   Scattered Clouds
4:13 PM 12.9 °F 6.9 °F 7.5 °F 79% 30.09 in 10.0 mi WSW 3.5 mph - N/A   Clear
4:33 PM 12.6 °F 6.5 °F 7.2 °F 79% 30.10 in 10.0 mi WSW 3.5 mph - N/A   Clear
4:53 PM 10.0 °F 3.6 °F 5.7 °F 83% 30.11 in 10.0 mi WSW 3.5 mph - N/A   Clear
5:13 PM 9.9 °F - 5.9 °F 84% 30.10 in 10.0 mi Calm Calm - N/A   Scattered Clouds
5:33 PM 7.3 °F - 3.9 °F 86% 30.11 in 10.0 mi Calm Calm - N/A   Mostly Cloudy
5:53 PM 6.8 °F -0.1 °F 3.9 °F 88% 30.12 in 10.0 mi West 3.5 mph - N/A   Overcast
6:13 PM 7.3 °F 0.5 °F 4.6 °F 89% 30.12 in 10.0 mi WNW 3.5 mph - N/A Snow Light Snow
6:33 PM 5.7 °F - 2.5 °F 86% 30.13 in 10.0 mi Calm Calm - N/A Snow Light Snow
6:53 PM 4.5 °F - 1.6 °F 88% 30.13 in 10.0 mi Calm Calm - N/A   Mostly Cloudy
7:13 PM 5.5 °F -1.5 °F 3.2 °F 90% 30.14 in 10.0 mi WSW 3.5 mph - N/A   Overcast
7:32 PM 4.6 °F -4.5 °F 1.8 °F 88% 30.14 in 7.0 mi West 4.6 mph - N/A   Overcast
7:53 PM 7.2 °F -3.0 °F 4.5 °F 89% 30.14 in 10.0 mi West 5.8 mph - N/A   Overcast
8:13 PM 10.0 °F -0.9 °F 7.3 °F 89% 30.15 in 10.0 mi WNW 6.9 mph - N/A Snow Light Snow
8:33 PM 10.4 °F -1.5 °F 6.8 °F 85% 30.15 in 10.0 mi WNW 8.1 mph - N/A Snow Light Snow
8:53 PM 10.0 °F -1.9 °F 6.4 °F 85% 30.15 in 10.0 mi WNW 8.1 mph - N/A Snow Light Snow
9:13 PM 9.3 °F -2.8 °F 5.9 °F 86% 30.14 in 10.0 mi WNW 8.1 mph - N/A Snow Light Snow
9:33 PM 8.4 °F -2.8 °F 5.2 °F 87% 30.15 in 10.0 mi WNW 6.9 mph - N/A   Overcast
9:53 PM 7.3 °F -4.1 °F 4.1 °F 87% 30.16 in 10.0 mi WNW 6.9 mph - N/A   Mostly Cloudy
10:13 PM 6.6 °F -3.7 °F 3.4 °F 87% 30.16 in 10.0 mi WNW 5.8 mph - N/A   Clear
10:33 PM 5.2 °F -9.8 °F 1.9 °F 86% 30.16 in 10.0 mi WNW 10.4 mph - N/A   Clear
10:53 PM 3.7 °F -10.6 °F -0.0 °F 84% 30.17 in 10.0 mi WNW 9.2 mph - N/A   Clear
11:13 PM 1.9 °F -11.8 °F -1.7 °F 85% 30.17 in 10.0 mi WNW 8.1 mph - N/A   Scattered Clouds
11:33 PM 1.2 °F -11.5 °F -2.4 °F 85% 30.17 in 10.0 mi WNW 6.9 mph - N/A   Scattered Clouds
11:53 PM 0.5 °F -14.6 °F -3.1 °F 85% 30.18 in 10.0 mi West 9.2 mph - N/A   Clear